Time,TemperatureF,DewpointF,PressureIn,WindDirection,WindDirectionDegrees,WindSpeedMPH,WindSpeedGustMPH,Humidity,HourlyPrecipIn,Conditions,Clouds,dailyrainin,SolarRadiationWatts/m^2,SoftwareType,DateUTC
2017-02-22 00:05:00,56.5,56.0,29.90,ENE,71,0.0,4.0,97,0.00,,,0.00,0,weatherlink.com 1.10,2017-02-22 06:05:00,
2017-02-22 00:21:00,56.5,56.0,29.89,ENE,77,4.0,7.0,97,0.00,,,0.00,0,weatherlink.com 1.10,2017-02-22 06:21:00,
2017-02-22 00:35:00,56.6,56.0,29.89,ENE,71,1.0,5.0,97,0.00,,,0.00,0,weatherlink.com 1.10,2017-02-22 06:35:00,
2017-02-22 00:51:00,56.6,56.0,29.89,ENE,61,1.0,8.0,97,0.00,,,0.00,0,weatherlink.com 1.10,2017-02-22 06:51:00,
2017-02-22 01:05:00,56.6,56.0,29.88,East,81,3.0,6.0,97,0.00,,,0.00,0,weatherlink.com 1.10,2017-02-22 07:05:00,
2017-02-22 01:20:00,56.6,56.0,29.88,East,96,6.0,7.0,97,0.00,,,0.00,0,weatherlink.com 1.10,2017-02-22 07:20:00,
2017-02-22 01:35:00,56.7,56.0,29.88,ENE,78,3.0,8.0,97,0.00,,,0.00,0,weatherlink.com 1.10,2017-02-22 07:35:00,
2017-02-22 01:50:00,56.7,56.0,29.88,ENE,61,2.0,8.0,97,0.00,,,0.00,0,weatherlink.com 1.10,2017-02-22 07:50:00,
2017-02-22 02:06:00,56.7,56.0,29.88,NE,51,1.0,6.0,97,0.00,,,0.00,0,weatherlink.com 1.10,2017-02-22 08:06:00,
2017-02-22 02:21:00,56.7,56.0,29.88,ENE,57,1.0,6.0,97,0.00,,,0.00,0,weatherlink.com 1.10,2017-02-22 08:21:00,
2017-02-22 02:35:00,56.7,56.0,29.87,ENE,59,2.0,4.0,97,0.00,,,0.00,0,weatherlink.com 1.10,2017-02-22 08:35:00,
2017-02-22 02:50:00,56.7,56.0,29.87,NE,55,4.0,7.0,97,0.00,,,0.00,0,weatherlink.com 1.10,2017-02-22 08:50:00,
2017-02-22 03:06:00,56.7,56.0,29.87,East,86,3.0,6.0,97,0.00,,,0.00,0,weatherlink.com 1.10,2017-02-22 09:06:00,
2017-02-22 03:21:00,56.8,56.0,29.87,NE,40,4.0,6.0,97,0.00,,,0.00,0,weatherlink.com 1.10,2017-02-22 09:21:00,
2017-02-22 03:36:00,56.8,56.0,29.87,SE,142,3.0,7.0,97,0.00,,,0.00,0,weatherlink.com 1.10,2017-02-22 09:36:00,
2017-02-22 03:51:00,56.9,56.0,29.86,ENE,77,3.0,7.0,97,0.00,,,0.00,0,weatherlink.com 1.10,2017-02-22 09:51:00,
2017-02-22 04:06:00,57.1,57.0,29.86,ENE,76,2.0,10.0,98,0.00,,,0.00,0,weatherlink.com 1.10,2017-02-22 10:06:00,
2017-02-22 04:21:00,57.1,56.0,29.86,ENE,59,4.0,8.0,97,0.00,,,0.00,0,weatherlink.com 1.10,2017-02-22 10:21:00,
2017-02-22 04:36:00,57.1,56.0,29.86,ENE,71,1.0,6.0,97,0.00,,,0.00,0,weatherlink.com 1.10,2017-02-22 10:36:00,
2017-02-22 04:51:00,57.1,56.0,29.86,ESE,115,3.0,8.0,97,0.00,,,0.00,0,weatherlink.com 1.10,2017-02-22 10:51:00,
2017-02-22 05:06:00,57.1,56.0,29.86,ESE,119,2.0,8.0,97,0.00,,,0.00,0,weatherlink.com 1.10,2017-02-22 11:06:00,
2017-02-22 05:21:00,57.1,56.0,29.87,East,82,4.0,6.0,97,0.00,,,0.00,0,weatherlink.com 1.10,2017-02-22 11:21:00,
2017-02-22 05:36:00,57.1,56.0,29.87,ENE,65,3.0,6.0,97,0.00,,,0.00,0,weatherlink.com 1.10,2017-02-22 11:36:00,
2017-02-22 05:51:00,57.0,56.0,29.88,East,82,1.0,5.0,97,0.00,,,0.00,0,weatherlink.com 1.10,2017-02-22 11:51:00,
2017-02-22 06:06:00,57.1,56.0,29.88,NE,51,3.0,6.0,97,0.00,,,0.00,0,weatherlink.com 1.10,2017-02-22 12:06:00,
2017-02-22 06:21:00,57.1,56.0,29.89,ENE,61,0.0,4.0,97,0.00,,,0.00,0,weatherlink.com 1.10,2017-02-22 12:21:00,
2017-02-22 06:36:00,57.0,56.0,29.89,NE,40,2.0,3.0,97,0.00,,,0.00,0,weatherlink.com 1.10,2017-02-22 12:36:00,
2017-02-22 06:51:00,57.1,56.0,29.90,ENE,67,0.0,4.0,97,0.00,,,0.00,11,weatherlink.com 1.10,2017-02-22 12:51:00,
2017-02-22 07:06:00,57.1,56.0,29.90,ENE,68,0.0,3.0,97,0.00,,,0.00,14,weatherlink.com 1.10,2017-02-22 13:06:00,
2017-02-22 07:21:00,57.2,56.0,29.90,ENE,67,0.0,3.0,97,0.00,,,0.00,21,weatherlink.com 1.10,2017-02-22 13:21:00,
2017-02-22 07:36:00,57.3,57.0,29.90,ENE,67,1.0,2.0,97,0.00,,,0.00,16,weatherlink.com 1.10,2017-02-22 13:36:00,
2017-02-22 07:52:00,57.3,57.0,29.89,NE,51,0.0,3.0,97,0.00,,,0.00,18,weatherlink.com 1.10,2017-02-22 13:52:00,
2017-02-22 08:06:00,57.3,57.0,29.89,East,85,3.0,5.0,97,0.00,,,0.00,23,weatherlink.com 1.10,2017-02-22 14:06:00,
2017-02-22 08:21:00,57.4,57.0,29.89,ENE,63,1.0,5.0,97,0.00,,,0.00,30,weatherlink.com 1.10,2017-02-22 14:21:00,
2017-02-22 08:37:00,57.7,57.0,29.90,ESE,106,2.0,7.0,97,0.00,,,0.00,51,weatherlink.com 1.10,2017-02-22 14:37:00,
2017-02-22 08:52:00,57.9,57.0,29.89,East,89,4.0,9.0,97,0.00,,,0.00,63,weatherlink.com 1.10,2017-02-22 14:52:00,
2017-02-22 09:07:00,58.1,57.0,29.90,ESE,110,3.0,10.0,97,0.00,,,0.00,69,weatherlink.com 1.10,2017-02-22 15:07:00,
2017-02-22 09:22:00,58.4,58.0,29.89,ESE,107,7.0,8.0,97,0.00,,,0.00,95,weatherlink.com 1.10,2017-02-22 15:22:00,
2017-02-22 09:37:00,59.1,58.0,29.89,SSE,163,6.0,7.0,96,0.01,,,0.01,114,weatherlink.com 1.10,2017-02-22 15:37:00,
2017-02-22 09:52:00,59.4,58.0,29.89,East,100,7.0,9.0,95,0.01,,,0.01,167,weatherlink.com 1.10,2017-02-22 15:52:00,
2017-02-22 10:07:00,60.2,59.0,29.88,SSE,158,8.0,13.0,95,0.01,,,0.01,169,weatherlink.com 1.10,2017-02-22 16:07:00,
2017-02-22 10:22:00,60.4,59.0,29.89,ESE,117,7.0,12.0,94,0.01,,,0.01,227,weatherlink.com 1.10,2017-02-22 16:22:00,
2017-02-22 10:37:00,61.2,59.0,29.89,SE,135,4.0,11.0,92,0.00,,,0.01,179,weatherlink.com 1.10,2017-02-22 16:37:00,
2017-02-22 10:52:00,61.6,59.0,29.90,ESE,105,3.0,9.0,90,0.00,,,0.01,229,weatherlink.com 1.10,2017-02-22 16:52:00,
2017-02-22 11:07:00,62.7,59.0,29.89,ESE,111,9.0,14.0,88,0.00,,,0.01,334,weatherlink.com 1.10,2017-02-22 17:07:00,
2017-02-22 11:22:00,63.0,59.0,29.89,ENE,77,2.0,9.0,88,0.00,,,0.01,309,weatherlink.com 1.10,2017-02-22 17:22:00,
2017-02-22 11:37:00,63.1,59.0,29.89,ENE,70,2.0,6.0,86,0.00,,,0.01,192,weatherlink.com 1.10,2017-02-22 17:37:00,
2017-02-22 11:53:00,63.4,60.0,29.88,SSE,168,6.0,9.0,87,0.00,,,0.01,197,weatherlink.com 1.10,2017-02-22 17:53:00,
2017-02-22 12:07:00,63.3,59.0,29.88,East,97,8.0,14.0,85,0.00,,,0.01,132,weatherlink.com 1.10,2017-02-22 18:07:00,
2017-02-22 12:22:00,63.4,59.0,29.88,NE,35,2.0,8.0,84,0.00,,,0.01,366,weatherlink.com 1.10,2017-02-22 18:22:00,
2017-02-22 12:37:00,63.4,59.0,29.87,East,79,3.0,6.0,84,0.00,,,0.01,248,weatherlink.com 1.10,2017-02-22 18:37:00,
2017-02-22 12:52:00,63.2,58.0,29.87,ENE,67,1.0,6.0,83,0.00,,,0.01,98,weatherlink.com 1.10,2017-02-22 18:52:00,
2017-02-22 13:07:00,63.1,59.0,29.87,East,86,4.0,6.0,85,0.00,,,0.01,93,weatherlink.com 1.10,2017-02-22 19:07:00,
2017-02-22 13:22:00,62.7,58.0,29.86,ENE,63,2.0,6.0,85,0.00,,,0.01,44,weatherlink.com 1.10,2017-02-22 19:22:00,
2017-02-22 13:38:00,62.3,58.0,29.87,NE,54,1.0,5.0,87,0.00,,,0.01,54,weatherlink.com 1.10,2017-02-22 19:38:00,
2017-02-22 13:52:00,62.7,59.0,29.86,NE,44,3.0,6.0,87,0.00,,,0.01,183,weatherlink.com 1.10,2017-02-22 19:52:00,
2017-02-22 14:07:00,64.3,60.0,29.86,ESE,119,3.0,7.0,85,0.00,,,0.01,313,weatherlink.com 1.10,2017-02-22 20:07:00,
2017-02-22 14:22:00,64.4,60.0,29.85,ESE,120,2.0,9.0,84,0.00,,,0.01,158,weatherlink.com 1.10,2017-02-22 20:22:00,
2017-02-22 14:37:00,64.0,60.0,29.85,East,91,3.0,8.0,85,0.00,,,0.01,118,weatherlink.com 1.10,2017-02-22 20:37:00,
2017-02-22 14:53:00,63.7,59.0,29.84,ESE,105,4.0,8.0,85,0.00,,,0.01,158,weatherlink.com 1.10,2017-02-22 20:53:00,
2017-02-22 15:08:00,63.6,59.0,29.84,ESE,117,3.0,8.0,86,0.00,,,0.01,181,weatherlink.com 1.10,2017-02-22 21:08:00,
2017-02-22 15:23:00,64.1,59.0,29.84,East,96,7.0,11.0,84,0.00,,,0.01,251,weatherlink.com 1.10,2017-02-22 21:23:00,
2017-02-22 15:38:00,64.4,59.0,29.84,East,88,3.0,10.0,83,0.00,,,0.01,128,weatherlink.com 1.10,2017-02-22 21:38:00,
2017-02-22 15:53:00,64.0,59.0,29.84,ESE,121,5.0,11.0,84,0.00,,,0.01,134,weatherlink.com 1.10,2017-02-22 21:53:00,
2017-02-22 16:08:00,64.8,59.0,29.85,East,80,3.0,8.0,82,0.00,,,0.01,141,weatherlink.com 1.10,2017-02-22 22:08:00,